Weather History for EDTL - January, 2013

Change the Weather History Date:

Wednesday, January 30, 2013

  Actual Average (LFST) Record (LFST)
Temperature  
Mean Temperature 53 °F -  
Max Temperature 59 °F 39 °F 60 °F (2013)
Min Temperature 47 °F 29 °F 15 °F (2005)
Degree Days  
Heating Degree Days 12    
Growing Degree Days 3 (Base 50)    
Moisture  
Dew Point 48 °F    
Average Humidity 73    
Maximum Humidity 88    
Minimum Humidity 45    
Precipitation  
Precipitation 0.20 in - - ()
Sea Level Pressure  
Sea Level Pressure 30.03 in    
Wind  
Wind Speed 15 mph ()    
Max Wind Speed 27 mph    
Max Gust Speed 29 mph    
Visibility 9.7 miles    
Events Rain    
Averages and records for this station are not official NWS values.
T = Trace of Precipitation, MM = Missing Value Source: Averaged Metar Reports

Daily Weather History Graph

Daily Weather History Graph

Search for Another Location

Airport or City:

Trip Planner

Search our weather history database for the weather conditions in past years. The results will help you decide how hot, cold, wet, or windy it might be!

Date:

Astronomy

Jan. 30, 2013 Rise Set
Actual Time 7:59 AM CET 5:24 PM CET
Civil Twilight 7:26 AM CET 5:58 PM CET
Nautical Twilight 6:48 AM CET 6:36 PM CET
Astronomical Twilight 6:11 AM CET 7:12 PM CET
Moon 9:29 PM CET (1/30) 8:59 AM CET (1/30)
Length of Visible Light 10h 32m
Length of Day
9h 24m
Waning Gibbous, 89% of the Moon is Illuminated
Jan 30
Waning Gibbous
Feb 3
Last Quarter
Feb 10
New
Feb 17
First Quarter
Feb 25
Full

Hourly Weather History & Observations

Time (CET) Temp. Dew Point Humidity Pressure Visibility Wind Dir Wind Speed Gust Speed Precip Events Conditions
12:00 AM 49 °F 45 °F 83% 30.12 in 40 mi SSW 17.9 mph - -   Overcast
1:00 AM 50 °F 45 °F 78% 30.11 in 44 mi SSW 20.1 mph - -   Clear
2:00 AM 51 °F 46 °F 78% 30.11 in 44 mi SSW 13.4 mph - -   Overcast
3:00 AM 52 °F 46 °F 74% 30.09 in 44 mi SSW 17.9 mph - -  
4:00 AM 52 °F 47 °F 77% 30.09 in 44 mi SSW 15.7 mph - - Rain Light Drizzle
5:00 AM 52 °F 47 °F 78% 30.08 in 19 mi SSW 13.4 mph - - Rain Light Drizzle
6:00 AM 54 °F 48 °F 74% 30.06 in 34 mi SSW 17.9 mph - - Rain Light Rain
7:00 AM 54 °F 48 °F 75% 30.06 in 34 mi SSW 17.9 mph - - Rain Light Rain
8:00 AM 54 °F 49 °F 78% 30.06 in 16 mi SSW 15.7 mph - - Rain Light Rain
8:20 AM 53.6 °F 50.0 °F 88% 30.04 in 6.2 mi SSW 16.1 mph - N/A Rain Light Drizzle
8:50 AM 55.4 °F 48.2 °F 77% 30.01 in 6.2 mi SSW 16.1 mph - N/A   Mostly Cloudy
9:00 AM 55 °F 49 °F 74% 30.04 in 28 mi SSW 17.9 mph - - Rain Light Rain
9:20 AM 55.4 °F 48.2 °F 77% 30.01 in 6.2 mi South 20.7 mph - N/A   Mostly Cloudy
9:50 AM 57.2 °F 48.2 °F 72% 30.01 in 6.2 mi South 19.6 mph - N/A   Mostly Cloudy
10:00 AM 56 °F 49 °F 69% 30.03 in 37 mi South 15.7 mph - -   Partly Cloudy
10:20 AM 57.2 °F 48.2 °F 72% 30.01 in 6.2 mi South 17.3 mph 28.8 mph N/A   Mostly Cloudy
10:50 AM 57.2 °F 48.2 °F 72% 30.01 in 6.2 mi South 17.3 mph 28.8 mph N/A   Mostly Cloudy
11:00 AM 58 °F 48 °F 61% 30.01 in 37 mi SSW 17.9 mph - - Rain Light Rain Showers
11:20 AM 59.0 °F 48.2 °F 67% 30.01 in 6.2 mi South 19.6 mph - N/A   Mostly Cloudy
12:00 PM 59 °F 48 °F 58% 30.00 in 37 mi SSW 20.1 mph - -   Mostly Cloudy
1:00 PM 59 °F 49 °F 62% 29.99 in 44 mi SSW 26.8 mph - -   Mostly Cloudy
2:00 PM 57 °F 50 °F 70% 29.98 in 16 mi SSW 22.4 mph - - Rain Light Rain Showers
3:00 PM 57 °F 50 °F 70% 29.94 in 44 mi SSW 15.7 mph - - Rain Light Rain Showers
4:00 PM 58 °F 50 °F 66% 29.93 in 44 mi SSW 17.9 mph - - Rain Light Rain Showers
5:00 PM 55 °F 50 °F 79% 29.94 in 31 mi SSW 11.2 mph - - Rain Light Rain Showers
6:00 PM 55 °F 51 °F 81% 29.95 in 25 mi SSW 17.9 mph - - Rain Light Rain Showers
7:00 PM 51 °F 48 °F 86% 30.01 in 12 mi WNW 8.9 mph - - Rain Light Rain Showers
8:00 PM 52 °F 44 °F 68% 30.06 in 31 mi West 11.2 mph - - Rain Light Rain Showers
10:00 PM 53 °F 38 °F 45% 30.12 in 44 mi West 17.9 mph - -   Clear